• In Belarus
  • List of Countries
  • For 7 days
  • Water Temperature
  • Satellite Maps
  • Weather Map
  • Weather Widgets
  • user-avatar
    Login

    Hourly Weather Cyklady

    Today, 21 September, Friday

    Time Temperature Precipitation Wind Pressure Humidity
    00:00 +16°C° 0 mm 1 mps 685 mmHg 71%
    01:00 +16°C° 0 mm 1 mps 685 mmHg 71%
    02:00 +15°C° 0 mm 1 mps 685 mmHg 69%
    03:00 +15°C° 0 mm 1 mps 685 mmHg 68%
    04:00 +15°C° 0 mm 1 mps 685 mmHg 67%
    05:00 +16°C° 0 mm 1 mps 685 mmHg 61%
    06:00 +18°C° 0 mm 1 mps 685 mmHg 55%
    07:00 +19°C° 0 mm 1 mps 686 mmHg 49%
    08:00 +21°C° 0 mm 1 mps 686 mmHg 43%
    09:00 +24°C° 0 mm 1 mps 687 mmHg 36%
    10:00 +26°C° 0 mm 1 mps 687 mmHg 30%
    11:00 +26°C° 0 mm 2 mps 687 mmHg 30%
    12:00 +27°C° 0 mm 2 mps 687 mmHg 29%
    13:00 +27°C° 0 mm 3 mps 687 mmHg 29%
    14:00 +26°C° 0 mm 3 mps 686 mmHg 33%
    15:00 +25°C° 0 mm 3 mps 686 mmHg 37%
    16:00 +25°C° 0 mm 2 mps 686 mmHg 41%
    17:00 +23°C° 0 mm 2 mps 686 mmHg 49%
    18:00 +21°C° 0 mm 1 mps 686 mmHg 57%
    19:00 +19°C° 0 mm 1 mps 685 mmHg 65%
    20:00 +19°C° 0 mm 1 mps 686 mmHg 67%
    21:00 +18°C° 0 mm 1 mps 686 mmHg 68%
    22:00 +18°C° 0 mm 1 mps 686 mmHg 70%
    23:00 +18°C° 0 mm 1 mps 686 mmHg 69%

    Tomorrow, 22 September, Saturday

    Time Temperature Precipitation Wind Pressure Humidity
    00:00 +16°C° 0 mm 1 mps 686 mmHg 68%
    01:00 +16°C° 0 mm 1 mps 685 mmHg 67%
    02:00 +16°C° 0 mm 1 mps 685 mmHg 66%
    03:00 +16°C° 0 mm 1 mps 685 mmHg 65%
    04:00 +16°C° 0 mm 1 mps 685 mmHg 64%
    05:00 +18°C° 0 mm 1 mps 685 mmHg 60%
    06:00 +19°C° 0 mm 1 mps 686 mmHg 56%
    07:00 +20°C° 0 mm 1 mps 686 mmHg 52%
    08:00 +22°C° 0 mm 1 mps 687 mmHg 45%
    09:00 +24°C° 0 mm 1 mps 687 mmHg 37%
    10:00 +27°C° 0 mm 1 mps 688 mmHg 30%
    11:00 +27°C° 0 mm 2 mps 687 mmHg 30%
    12:00 +27°C° 0 mm 2 mps 687 mmHg 29%
    13:00 +28°C° 0 mm 3 mps 687 mmHg 28%
    14:00 +27°C° 0 mm 3 mps 687 mmHg 32%
    15:00 +26°C° 0 mm 3 mps 687 mmHg 36%
    16:00 +25°C° 0 mm 3 mps 686 mmHg 39%
    17:00 +23°C° 0 mm 2 mps 686 mmHg 47%
    18:00 +21°C° 0 mm 2 mps 686 mmHg 54%
    19:00 +20°C° 0 mm 1 mps 686 mmHg 62%
    20:00 +19°C° 0 mm 1 mps 686 mmHg 64%
    21:00 +19°C° 0 mm 1 mps 687 mmHg 66%
    22:00 +18°C° 0 mm 1 mps 687 mmHg 68%
    23:00 +18°C° 0 mm 1 mps 687 mmHg 68%

    Day after tomorrow, 23 September, Sunday

    Time Temperature Precipitation Wind Pressure Humidity
    00:00 +18°C° 0 mm 1 mps 687 mmHg 68%
    01:00 +17°C° 0 mm 2 mps 686 mmHg 68%
    02:00 +16°C° 0 mm 1 mps 686 mmHg 67%
    03:00 +16°C° 0 mm 1 mps 686 mmHg 67%
    04:00 +16°C° 0 mm 1 mps 686 mmHg 66%
    05:00 +17°C° 0 mm 2 mps 686 mmHg 61%
    06:00 +18°C° 0 mm 2 mps 687 mmHg 56%
    07:00 +20°C° 0 mm 2 mps 687 mmHg 51%
    08:00 +23°C° 0 mm 2 mps 688 mmHg 42%
    09:00 +26°C° 0 mm 2 mps 689 mmHg 33%
    10:00 +28°C° 0 mm 2 mps 689 mmHg 24%
    11:00 +29°C° 0 mm 2 mps 689 mmHg 23%
    12:00 +29°C° 0 mm 3 mps 689 mmHg 22%
    13:00 +30°C° 0 mm 3 mps 689 mmHg 21%
    14:00 +29°C° 0 mm 3 mps 689 mmHg 25%
    15:00 +28°C° 0 mm 3 mps 689 mmHg 28%
    16:00 +27°C° 0 mm 3 mps 689 mmHg 32%
    17:00 +25°C° 0 mm 2 mps 689 mmHg 40%
    18:00 +23°C° 0 mm 1 mps 688 mmHg 48%
    19:00 +21°C° 0 mm 1 mps 688 mmHg 55%
    20:00 +20°C° 0 mm 1 mps 688 mmHg 54%
    21:00 +20°C° 0 mm 1 mps 688 mmHg 54%
    22:00 +19°C° 0 mm 1 mps 688 mmHg 53%
    23:00 +19°C° 0 mm 1 mps 688 mmHg 51%

    24 September, Monday

    Time Temperature Precipitation Wind Pressure Humidity
    00:00 +19°C° 0 mm 1 mps 688 mmHg 49%
    01:00 +19°C° 0 mm 1 mps 688 mmHg 47%
    02:00 +18°C° 0 mm 1 mps 687 mmHg 46%
    03:00 +18°C° 0 mm 1 mps 687 mmHg 46%
    04:00 +18°C° 0 mm 1 mps 687 mmHg 45%
    05:00 +19°C° 0 mm 1 mps 687 mmHg 43%
    06:00 +20°C° 0 mm 1 mps 687 mmHg 41%
    07:00 +21°C° 0 mm 1 mps 687 mmHg 40%
    08:00 +24°C° 0 mm 1 mps 687 mmHg 35%
    09:00 +26°C° 0 mm 1 mps 688 mmHg 31%
    10:00 +28°C° 0 mm 1 mps 688 mmHg 27%
    11:00 +29°C° 0 mm 2 mps 688 mmHg 27%
    12:00 +29°C° 0 mm 2 mps 687 mmHg 26%
    13:00 +29°C° 0 mm 3 mps 687 mmHg 26%
    14:00 +29°C° 0 mm 3 mps 686 mmHg 29%
    15:00 +28°C° 0 mm 3 mps 686 mmHg 32%
    16:00 +27°C° 0 mm 3 mps 685 mmHg 35%
    17:00 +25°C° 0 mm 3 mps 685 mmHg 43%
    18:00 +23°C° 0 mm 2 mps 685 mmHg 51%
    19:00 +20°C° 0 mm 2 mps 684 mmHg 59%
    20:00 +19°C° 0 mm 2 mps 684 mmHg 62%
    21:00 +19°C° 0 mm 2 mps 684 mmHg 66%
    22:00 +18°C° 0 mm 2 mps 684 mmHg 69%
    23:00 +18°C° 0 mm 2 mps 684 mmHg 70%

    25 September, Tuesday

    Time Temperature Precipitation Wind Pressure Humidity
    00:00 +17°C° 0 mm 2 mps 683 mmHg 72%
    01:00 +17°C° 0 mm 2 mps 683 mmHg 73%
    02:00 +17°C° 0 mm 2 mps 683 mmHg 72%
    03:00 +16°C° 0 mm 2 mps 683 mmHg 71%
    04:00 +16°C° 0 mm 2 mps 683 mmHg 70%
    05:00 +17°C° 0 mm 2 mps 683 mmHg 64%
    06:00 +19°C° 0 mm 2 mps 684 mmHg 58%
    07:00 +20°C° 0 mm 2 mps 684 mmHg 53%
    08:00 +23°C° 0 mm 2 mps 685 mmHg 46%
    09:00 +25°C° 0 mm 2 mps 685 mmHg 39%
    10:00 +27°C° 0 mm 2 mps 686 mmHg 32%
    11:00 +28°C° 0 mm 3 mps 686 mmHg 33%
    12:00 +28°C° 0 mm 3 mps 686 mmHg 34%
    13:00 +28°C° 0 mm 3 mps 686 mmHg 34%
    14:00 +27°C° 0 mm 3 mps 686 mmHg 39%
    15:00 +25°C° 0 mm 3 mps 685 mmHg 44%
    16:00 +24°C° 0 mm 3 mps 685 mmHg 49%
    17:00 +21°C° 0 mm 2 mps 685 mmHg 54%
    18:00 +20°C° 0 mm 2 mps 686 mmHg 58%
    19:00 +18°C° 0 mm 2 mps 686 mmHg 63%
    20:00 +18°C° 0 mm 2 mps 686 mmHg 63%
    21:00 +17°C° 0 mm 2 mps 686 mmHg 62%
    22:00 +16°C° 0 mm 3 mps 686 mmHg 62%
    23:00 +16°C° 0.1 mm 3 mps 686 mmHg 62%

    26 September, Wednesday

    Time Temperature Precipitation Wind Pressure Humidity
    00:00 +14°C° 0.1 mm 3 mps 686 mmHg 62%
    01:00 +14°C° 0.1 mm 3 mps 686 mmHg 62%
    02:00 +13°C° 0.1 mm 3 mps 686 mmHg 64%
    03:00 +13°C° 0.1 mm 4 mps 686 mmHg 65%
    04:00 +13°C° 0.1 mm 4 mps 686 mmHg 66%
    05:00 +13°C° 0.1 mm 4 mps 686 mmHg 64%
    06:00 +13°C° 0.1 mm 4 mps 686 mmHg 62%
    07:00 +13°C° 0.1 mm 4 mps 686 mmHg 60%
    08:00 +14°C° 0 mm 3 mps 687 mmHg 57%
    09:00 +14°C° 0 mm 3 mps 687 mmHg 54%
    10:00 +16°C° 0 mm 3 mps 687 mmHg 52%
    11:00 +17°C° 0 mm 3 mps 687 mmHg 49%
    12:00 +19°C° 0 mm 2 mps 687 mmHg 45%
    13:00 +20°C° 0 mm 2 mps 687 mmHg 42%
    14:00 +19°C° 0 mm 3 mps 687 mmHg 43%
    15:00 +18°C° 0 mm 3 mps 687 mmHg 44%
    16:00 +18°C° 0 mm 3 mps 686 mmHg 45%
    17:00 +17°C° 0 mm 3 mps 686 mmHg 48%
    18:00 +16°C° 0 mm 3 mps 686 mmHg 51%
    19:00 +14°C° 0 mm 3 mps 686 mmHg 53%
    20:00 +13°C° 0 mm 3 mps 686 mmHg 54%
    21:00 +12°C° 0 mm 3 mps 686 mmHg 55%
    22:00 +12°C° 0 mm 2 mps 686 mmHg 55%
    23:00 +11°C° 0 mm 3 mps 686 mmHg 53%
    Show more